Regional Weather Roundup
Issued by NWS

Home | Current Version | Previous Version | Text Only | Print | Product List | Glossary On
Versions: 1 2 3 4 5 6 7 8 9 10 11 12 13 14 15 16 17 18 19 20 21 22 23 24 25 26 27 28 29 30 31 32 33 34 35 36 37 38 39 40 41 42 43 44 45 46 47 48 49 50
000
ASUS44 KFWD 241015
RWRTX
NORTH TEXAS HOURLY WEATHER ROUNDUP
NATIONAL WEATHER SERVICE FORT WORTH TX
500 AM CDT FRI OCT 24 2014

NOTE: "FAIR" INDICATES FEW OR NO CLOUDS BELOW 12,000 FEET WITH NO
SIGNIFICANT WEATHER AND/OR OBSTRUCTIONS TO VISIBILITY.

TXZ118-119-241100-
DALLAS/FORT WORTH METROPLEX

CITY           SKY/WX    TMP DP  RH WIND       PRES   REMARKS
DFW AIRPORT    CLOUDY    64  56  75 S6        30.11R
DALLAS LOVE    MOCLDY    65  56  72 S6        30.12R
FTW MEACHAM    CLEAR     63  55  75 SE7       30.10S
DAL-EXECUTIVE  MOCLDY    64  55  72 S5        30.11R
FTW-ALLIANCE   PTCLDY    61  55  81 S3        30.10S
FTW-NAS-JRB    CLEAR     67  54  63 S5        30.15R
FTW-SPINKS     CLEAR     61  55  80 S6        30.12S
ARLINGTON      MOCLDY    62  55  77 CALM      30.12R
GRAND PRAIRIE  PTCLDY    64  57  79 S3        30.13S
ADDISON        CLOUDY    65  58  80 S6        30.13S
MESQUITE       MOCLDY    56  55  95 E3        30.13R
LANCASTER      MOCLDY    58  54  85 CALM      30.13S
$$

TXZ091>094-102>105-117-120-121-131>134-241100-
NORTH CENTRAL TEXAS

CITY           SKY/WX    TMP DP  RH WIND       PRES   REMARKS
SHRMAN/DENISON CLEAR     58  56  92 E3        30.13S
GAINESVILLE    CLEAR     57  55  91 SE5       30.13S
BOWIE          CLEAR     58  56  95 SE3       30.10S
BRIDGEPORT     CLEAR     57  57 100 CALM      30.12S
DECATUR        CLEAR     64  55  72 S10       30.11S
DENTON         MOCLDY    59  56  89 SE3       30.11S
MCKINNEY       CLEAR     58  55  90 SE3       30.13R
GREENVILLE     CLEAR     54  52  94 CALM      30.14S
ROCKWALL       CLEAR     58  55  91 SE3       30.12S
TERRELL        CLEAR     57  54  89 CALM      30.14R
WAXAHACHIE     PTCLDY    59  56  89 S3        30.14R
CLEBURNE       PTCLDY    61  57  88 S6        30.13S
GRANBURY       PTCLDY    63  57  82 SE3       30.12S
$$

TXZ083>090-098>101-113>116-127>130-139>142-154-155-241100-
WESTERN NORTH TEXAS

CITY           SKY/WX    TMP DP  RH WIND       PRES   REMARKS
WICHITA FALLS  CLEAR     60  57  89 S8        30.07S
WF-KICKAPOO    CLEAR     60  57  88 S5        30.09S
VERNON         CLEAR     61  57  88 S6        30.08S
ABILENE        CLEAR     63  59  87 SW5       30.11S
ABILENE-DYESS  CLEAR     64  59  85 SW2       30.10S
BRECKENRIDGE   CLEAR     65  59  81 S8        30.10S
GRAHAM         CLEAR     61  57  88 E3        30.08F
MINERAL WELLS  CLEAR     60  56  86 SE6       30.09S
STEPHENVILLE   CLEAR     60  55  86 S3        30.14S
COMANCHE       CLEAR     62  59  91 S7        30.12S
BROWNWOOD      MOCLDY    59  57  94 MISG      30.13S
COLEMAN        CLEAR     60  60  99 S3        30.12S
BRADY          CLEAR     61  59  94 S3        30.13S
$$

TXZ143>147-156>162-174-175-241100-
CENTRAL TEXAS

CITY           SKY/WX    TMP DP  RH WIND       PRES   REMARKS
WACO           MOCLDY    64  55  72 S10       30.13R
WACO-MCGREGOR  PTCLDY    61  52  72 S3        30.14S
HILLSBORO      PTCLDY    62  54  74 SE5       30.13S
CORSICANA      CLOUDY    58  54  86 SE5       30.14R
MEXIA          CLEAR     57  54  88 CALM      30.12S
HEARNE         CLEAR     57  55  90 CALM      30.14S FOG
CAMERON        CLEAR     59  55  84 CALM      30.13S
TEMPLE         MOCLDY    59  52  77 SE6       30.12S
KILLEEN        CLEAR     63  55  76 S6        30.13S
KILLEEN-SKYLRK CLEAR     59  50  72 SE3       30.10S
FORT HOOD      CLEAR     64  56  75 SE3       30.13R
GATESVILLE     CLEAR     61  55  82 CALM      30.14S
HAMILTON       CLEAR     59  55  85 S6        30.14S
LAMPASAS       CLEAR     60  58  91 CALM      30.12S
$$

TXZ095>097-106>112-122>126-135>138-148>153-164>167-241100-
EAST TEXAS

CITY           SKY/WX    TMP DP  RH WIND       PRES   REMARKS
PARIS          CLEAR     54  45  71 E6        30.15R
SULPHUR SPRNGS PTCLDY    55  54  94 CALM      30.16R
MOUNT PLEASANT CLEAR     52  51  97 CALM      30.16R
MINEOLA        CLEAR     54  54 100 CALM      30.15S
TYLER          CLEAR     57  52  83 CALM      30.13S
LONGVIEW       CLEAR     53  50  89 CALM      30.14R
MARSHALL       CLEAR     53  51  92 CALM      30.17R
ATHENS         CLEAR     52  52 100 CALM      30.13R
PALESTINE      CLEAR     56  53  90 CALM      30.15R
JACKSONVILLE   CLEAR     56  50  79 CALM      30.15R
HENDERSON      CLEAR     51  51 100 CALM      30.15S
NACOGDOCHES    CLEAR     48  45  87 CALM      30.15R
LUFKIN         CLEAR     52  48  86 CALM      30.14S
$$

SUPPLEMENTAL OBSERVATIONS (CENTRAL)

CITY           SKY/WX    TMP DP  RH WIND       PRES   REMARKS
LAKE TEXOMA      N/A     57  54  88 E5          N/A
CADDO GRASSLND   N/A     54  48  82 S1          N/A
PAT MAYSE LAKE   N/A     52  48  87 N1          N/A
GREENVILLE       N/A     57  52  82 SE2         N/A
CEDAR HILL       N/A     63  54  72 S2          N/A
PALESTINE        N/A     52  50  93 CALM        N/A
LAKE LIMESTONE   N/A     55  50  82 E1          N/A
MCGREGOR         N/A     61  54  77 SW3         N/A
TEMPLE           N/A     61  54  77 S2          N/A
$$

SUPPLEMENTAL OBSERVATIONS (WEST)

CITY           SKY/WX    TMP DP  RH WIND       PRES   REMARKS
MILLERS CREEK    N/A     59  50  72 SW5         N/A
POSSUM KINGDOM   N/A     64  57  77 S6          N/A
LBJ GRASSLAND    N/A     63  54  72 SE8         N/A
GRANBURY         N/A     63  55  77 SE5         N/A
COMANCHE         N/A     63  57  82 S7          N/A
HAMBY            N/A     61  55  82 S3          N/A
IVIE RESERVOIR   N/A     61  57  88 CALM        N/A
COLORADO BEND    N/A     61  55  82 S2          N/A
$$

SUPPLEMENTAL OBSERVATIONS (EAST)

CITY           SKY/WX    TMP DP  RH WIND       PRES   REMARKS
TEXARKANA        N/A     46  45  93 CALM        N/A
LINDEN           N/A     48  45  87 CALM        N/A
LUFKIN           N/A     48  45  87 MISG        N/A
N SABINE NF      N/A     46  43  87 MISG        N/A
$$

SUPPLEMENTAL OBSERVATIONS ARE A COLLECTION OF AUTOMATED INSTRUMENTS
THAT ARE MAINTAINED BY A VARIETY OF FEDERAL AND STATE AGENCIES.
CERTAIN ELEMENTS...SUCH AS HUMIDITY VALUES AND SUSTAINED WIND
SPEEDS...MAY BE APPROXIMATED.




USA.gov is the U.S. government's official web portal to all federal, state and local government web resources and services.